Погода в Вабкенте

Узбекистан     40°01′22″N   64°31′00″E
темп.,
°C
ветер,
м/с
пор.,
м/с
влажн.,
%
обл.,
%
осадки,
мм/ч
давл.,
гПа
погр.,
м
3 марта, ср
ср323:00+8ссв594958 0.0 1024263
02:00+6с596150 0.0 1024256
05:00+5ссв596657 0.0 1024230
08:00+4ссв58640 0.0 1024214
11:00+10с32410 0.0 1023470
14:00+14зсз34320 0.0 10211297
17:00+14сз43310 0.0 10201272
20:00+10ссв34410 0.0 102090
4 марта, чт
чт423:00+9св34460 0.0 102072
02:00+8всв34490 0.0 101833
05:00+8вюв23530 0.0 101723
08:00+10юв474696 0.0 1017115
11:00+14ю454596 1.5 1017522
14:00+19ююз8113822 0.8 10161830
17:00+15зсз9113952 1.1 10181001
20:00+10ссз7105395 0.0 10241211
5 марта, пт
пт523:00+7с686498 0.5 1027855
02:00+5с47690 0.0 1029304
05:00+3св37710 0.0 1030174
08:00+4св59680 0.0 1030245
11:00+10всв45430 0.0 1028878
14:00+14вюв44260 0.0 10241413
17:00+14вюв34210 0.0 10201017
20:00+12св342933 0.0 101959
6 марта, сб
сб623:00+11в594767 0.0 1016280
02:00+10св574999 0.0 1013137
05:00+10св484899 0.1 1011318
08:00+6ссв81176100 5.8 1011225
11:00+6ссв101383100 12.1 1012285
14:00+8св81185100 2.6 1011305
17:00+7ссв71087100 6.6 1013398
20:00+3с101487100 1.8 1016478
7 марта, вс
вс723:00+4сз7989100 3.4 1018449
02:00+3зсз5791100 0.5 1019318
05:00+3з3478100 0.6 1020363
08:00+4юз3368100 0.0 1021416
11:00+7ююз4457100 0.0 1020740
14:00+9ю44480 0.0 10181054
17:00+11ююв44440 0.0 10161195
20:00+9юв34540 0.0 101799